Time,TemperatureF,DewpointF,PressureIn,WindDirection,WindDirectionDegrees,WindSpeedMPH,WindSpeedGustMPH,Humidity,HourlyPrecipIn,Conditions,Clouds,dailyrainin,SoftwareType,DateUTC
2013-07-07 00:01:00,75.9,74.0,30.02,SE,143,0.0,0.0,92,0.00,,,0.00,weatherlink.com 1.10,2013-07-07 04:01:00,
2013-07-07 00:16:00,75.6,74.0,30.02,SE,143,0.0,0.0,93,0.00,,,0.00,weatherlink.com 1.10,2013-07-07 04:16:00,
2013-07-07 00:31:00,75.5,73.0,30.02,SE,143,0.0,0.0,93,0.00,,,0.00,weatherlink.com 1.10,2013-07-07 04:31:00,
2013-07-07 00:47:00,75.5,73.0,30.02,SE,143,0.0,0.0,93,0.00,,,0.00,weatherlink.com 1.10,2013-07-07 04:47:00,
2013-07-07 01:02:00,75.0,73.0,30.02,SE,143,0.0,0.0,93,0.00,,,0.00,weatherlink.com 1.10,2013-07-07 05:02:00,
2013-07-07 01:16:00,74.9,73.0,30.03,SE,143,0.0,0.0,93,0.00,,,0.00,weatherlink.com 1.10,2013-07-07 05:16:00,
2013-07-07 01:32:00,74.8,73.0,30.03,SE,143,0.0,0.0,93,0.00,,,0.00,weatherlink.com 1.10,2013-07-07 05:32:00,
2013-07-07 01:47:00,74.3,73.0,30.02,SE,143,0.0,0.0,94,0.00,,,0.00,weatherlink.com 1.10,2013-07-07 05:47:00,
2013-07-07 02:01:00,74.1,73.0,30.02,SE,143,0.0,0.0,95,0.00,,,0.00,weatherlink.com 1.10,2013-07-07 06:01:00,
2013-07-07 02:16:00,74.0,73.0,30.02,SE,143,0.0,0.0,95,0.00,,,0.00,weatherlink.com 1.10,2013-07-07 06:16:00,
2013-07-07 02:32:00,73.9,72.0,30.02,SE,143,0.0,0.0,94,0.00,,,0.00,weatherlink.com 1.10,2013-07-07 06:32:00,
2013-07-07 02:47:00,73.7,72.0,30.02,SE,143,0.0,0.0,94,0.00,,,0.00,weatherlink.com 1.10,2013-07-07 06:47:00,
2013-07-07 03:03:00,73.4,72.0,30.02,SE,143,0.0,0.0,95,0.00,,,0.00,weatherlink.com 1.10,2013-07-07 07:03:00,
2013-07-07 03:17:00,73.2,72.0,30.02,SE,143,0.0,0.0,95,0.00,,,0.00,weatherlink.com 1.10,2013-07-07 07:17:00,
2013-07-07 03:32:00,73.1,72.0,30.01,SE,143,0.0,0.0,96,0.00,,,0.00,weatherlink.com 1.10,2013-07-07 07:32:00,
2013-07-07 03:48:00,72.9,71.0,30.01,SE,143,0.0,0.0,95,0.00,,,0.00,weatherlink.com 1.10,2013-07-07 07:48:00,
2013-07-07 04:03:00,72.6,71.0,30.01,SE,143,0.0,0.0,95,0.00,,,0.00,weatherlink.com 1.10,2013-07-07 08:03:00,
2013-07-07 04:18:00,72.2,71.0,30.01,SE,143,0.0,0.0,96,0.00,,,0.00,weatherlink.com 1.10,2013-07-07 08:18:00,
2013-07-07 04:32:00,72.0,71.0,30.01,SE,143,0.0,0.0,96,0.00,,,0.00,weatherlink.com 1.10,2013-07-07 08:32:00,
2013-07-07 04:48:00,71.9,71.0,30.01,SE,143,0.0,0.0,96,0.00,,,0.00,weatherlink.com 1.10,2013-07-07 08:48:00,
2013-07-07 05:04:00,71.8,71.0,30.01,SE,143,0.0,0.0,96,0.00,,,0.00,weatherlink.com 1.10,2013-07-07 09:04:00,
2013-07-07 05:19:00,71.6,70.0,30.01,SE,143,0.0,0.0,96,0.00,,,0.00,weatherlink.com 1.10,2013-07-07 09:19:00,
2013-07-07 05:33:00,71.5,71.0,30.01,SE,143,0.0,0.0,97,0.00,,,0.00,weatherlink.com 1.10,2013-07-07 09:33:00,
2013-07-07 05:49:00,71.4,71.0,30.01,SE,143,0.0,0.0,97,0.00,,,0.00,weatherlink.com 1.10,2013-07-07 09:49:00,
2013-07-07 06:04:00,71.4,71.0,30.01,SE,143,0.0,0.0,97,0.00,,,0.00,weatherlink.com 1.10,2013-07-07 10:04:00,
2013-07-07 06:19:00,71.6,71.0,30.01,SE,143,0.0,0.0,97,0.00,,,0.00,weatherlink.com 1.10,2013-07-07 10:19:00,
2013-07-07 06:34:00,72.1,71.0,30.01,SE,143,0.0,0.0,97,0.00,,,0.00,weatherlink.com 1.10,2013-07-07 10:34:00,
2013-07-07 06:49:00,73.0,72.0,30.01,SE,143,0.0,0.0,98,0.00,,,0.00,weatherlink.com 1.10,2013-07-07 10:49:00,
2013-07-07 07:04:00,73.2,72.0,30.02,SE,143,0.0,0.0,96,0.00,,,0.00,weatherlink.com 1.10,2013-07-07 11:04:00,
2013-07-07 07:20:00,73.7,73.0,30.01,SE,143,0.0,0.0,96,0.00,,,0.00,weatherlink.com 1.10,2013-07-07 11:20:00,
2013-07-07 07:36:00,74.6,73.0,30.01,SE,143,0.0,0.0,96,0.00,,,0.00,weatherlink.com 1.10,2013-07-07 11:36:00,
2013-07-07 07:50:00,75.6,74.0,30.01,SE,143,0.0,0.0,95,0.00,,,0.00,weatherlink.com 1.10,2013-07-07 11:50:00,
2013-07-07 08:06:00,76.8,75.0,30.02,SSE,153,0.0,0.0,93,0.00,,,0.00,weatherlink.com 1.10,2013-07-07 12:06:00,
2013-07-07 08:22:00,78.2,75.0,30.02,SE,136,0.0,0.0,89,0.00,,,0.00,weatherlink.com 1.10,2013-07-07 12:22:00,
2013-07-07 08:37:00,79.2,75.0,30.01,SE,136,0.0,0.0,88,0.00,,,0.00,weatherlink.com 1.10,2013-07-07 12:37:00,
2013-07-07 08:51:00,80.2,75.0,30.01,SE,134,0.0,0.0,85,0.00,,,0.00,weatherlink.com 1.10,2013-07-07 12:51:00,
2013-07-07 09:06:00,80.8,76.0,30.01,SE,134,0.0,0.0,85,0.00,,,0.00,weatherlink.com 1.10,2013-07-07 13:06:00,
2013-07-07 09:21:00,81.6,76.0,30.01,SE,134,0.0,1.0,83,0.00,,,0.00,weatherlink.com 1.10,2013-07-07 13:21:00,
2013-07-07 09:37:00,82.0,76.0,30.00,SE,143,0.0,1.0,83,0.00,,,0.00,weatherlink.com 1.10,2013-07-07 13:37:00,
2013-07-07 09:53:00,82.5,77.0,30.00,SE,132,0.0,1.0,83,0.00,,,0.00,weatherlink.com 1.10,2013-07-07 13:53:00,
2013-07-07 10:07:00,82.9,77.0,30.00,SE,131,0.0,0.0,81,0.00,,,0.00,weatherlink.com 1.10,2013-07-07 14:07:00,
2013-07-07 10:22:00,83.8,76.0,30.00,NNE,31,0.0,1.0,78,0.00,,,0.00,weatherlink.com 1.10,2013-07-07 14:22:00,
2013-07-07 10:38:00,84.3,78.0,30.00,NE,37,0.0,1.0,80,0.00,,,0.00,weatherlink.com 1.10,2013-07-07 14:38:00,
2013-07-07 10:52:00,84.7,77.0,29.99,ENE,65,0.0,0.0,77,0.00,,,0.00,weatherlink.com 1.10,2013-07-07 14:52:00,
2013-07-07 11:08:00,85.2,76.0,29.99,SE,124,0.0,1.0,73,0.00,,,0.00,weatherlink.com 1.10,2013-07-07 15:08:00,
2013-07-07 11:23:00,85.4,77.0,29.99,SE,131,0.0,1.0,76,0.00,,,0.00,weatherlink.com 1.10,2013-07-07 15:23:00,
2013-07-07 11:39:00,86.1,77.0,29.98,ESE,121,0.0,1.0,74,0.00,,,0.00,weatherlink.com 1.10,2013-07-07 15:39:00,
2013-07-07 11:53:00,86.9,76.0,29.98,ESE,110,0.0,1.0,71,0.00,,,0.00,weatherlink.com 1.10,2013-07-07 15:53:00,
2013-07-07 12:08:00,87.9,77.0,29.98,North,4,3.0,3.0,70,0.00,,,0.00,weatherlink.com 1.10,2013-07-07 16:08:00,
2013-07-07 12:23:00,88.4,74.0,29.98,SE,146,0.0,2.0,63,0.00,,,0.00,weatherlink.com 1.10,2013-07-07 16:23:00,
2013-07-07 12:38:00,89.0,74.0,29.97,ENE,65,0.0,1.0,61,0.00,,,0.00,weatherlink.com 1.10,2013-07-07 16:38:00,
2013-07-07 12:53:00,90.1,73.0,29.97,ESE,105,0.0,2.0,58,0.00,,,0.00,weatherlink.com 1.10,2013-07-07 16:53:00,
2013-07-07 13:08:00,90.1,73.0,29.97,SE,139,0.0,1.0,57,0.00,,,0.00,weatherlink.com 1.10,2013-07-07 17:08:00,
2013-07-07 13:24:00,90.3,76.0,29.96,SE,133,0.0,2.0,62,0.00,,,0.00,weatherlink.com 1.10,2013-07-07 17:24:00,
2013-07-07 13:40:00,90.9,75.0,29.96,NNE,15,0.0,2.0,59,0.00,,,0.00,weatherlink.com 1.10,2013-07-07 17:40:00,
2013-07-07 13:54:00,90.8,73.0,29.95,ESE,108,0.0,1.0,56,0.00,,,0.00,weatherlink.com 1.10,2013-07-07 17:54:00,
2013-07-07 14:09:00,91.3,76.0,29.94,NE,40,0.0,1.0,61,0.00,,,0.00,weatherlink.com 1.10,2013-07-07 18:09:00,
2013-07-07 14:25:00,91.4,76.0,29.94,North,354,0.0,2.0,60,0.00,,,0.00,weatherlink.com 1.10,2013-07-07 18:25:00,
2013-07-07 14:40:00,91.3,76.0,29.93,East,100,0.0,1.0,61,0.00,,,0.00,weatherlink.com 1.10,2013-07-07 18:40:00,
2013-07-07 14:54:00,90.7,75.0,29.93,ESE,108,0.0,2.0,60,0.00,,,0.00,weatherlink.com 1.10,2013-07-07 18:54:00,
2013-07-07 15:09:00,91.6,74.0,29.93,ENE,68,1.0,3.0,57,0.00,,,0.00,weatherlink.com 1.10,2013-07-07 19:09:00,
2013-07-07 15:25:00,91.8,76.0,29.93,SSE,151,0.0,3.0,60,0.00,,,0.00,weatherlink.com 1.10,2013-07-07 19:25:00,
2013-07-07 15:40:00,91.2,76.0,29.93,East,99,1.0,1.0,61,0.00,,,0.00,weatherlink.com 1.10,2013-07-07 19:40:00,
2013-07-07 15:55:00,90.6,76.0,29.92,SE,146,0.0,2.0,63,0.00,,,0.00,weatherlink.com 1.10,2013-07-07 19:55:00,
2013-07-07 16:10:00,90.2,76.0,29.91,SE,133,0.0,1.0,64,0.00,,,0.00,weatherlink.com 1.10,2013-07-07 20:10:00,
2013-07-07 16:26:00,89.8,75.0,29.91,North,355,0.0,4.0,61,0.00,,,0.00,weatherlink.com 1.10,2013-07-07 20:26:00,
2013-07-07 16:41:00,88.9,75.0,29.91,NNW,345,0.0,2.0,64,0.00,,,0.00,weatherlink.com 1.10,2013-07-07 20:41:00,
2013-07-07 16:55:00,88.0,76.0,29.91,East,87,0.0,1.0,67,0.00,,,0.00,weatherlink.com 1.10,2013-07-07 20:55:00,
2013-07-07 17:10:00,86.7,76.0,29.92,NNW,338,0.0,1.0,70,0.00,,,0.00,weatherlink.com 1.10,2013-07-07 21:10:00,
2013-07-07 17:26:00,86.1,76.0,29.91,NNW,338,0.0,1.0,72,0.00,,,0.00,weatherlink.com 1.10,2013-07-07 21:26:00,
2013-07-07 17:41:00,85.8,77.0,29.91,East,94,0.0,1.0,74,0.00,,,0.00,weatherlink.com 1.10,2013-07-07 21:41:00,
2013-07-07 17:55:00,85.6,76.0,29.90,East,93,0.0,0.0,74,0.00,,,0.00,weatherlink.com 1.10,2013-07-07 21:55:00,
2013-07-07 18:11:00,84.6,76.0,29.90,NW,321,0.0,0.0,76,0.00,,,0.00,weatherlink.com 1.10,2013-07-07 22:11:00,
2013-07-07 18:27:00,83.5,76.0,29.90,NW,321,0.0,0.0,78,0.00,,,0.00,weatherlink.com 1.10,2013-07-07 22:27:00,
2013-07-07 18:41:00,82.8,76.0,29.91,NW,321,0.0,0.0,79,0.00,,,0.00,weatherlink.com 1.10,2013-07-07 22:41:00,
2013-07-07 18:57:00,82.5,76.0,29.91,NW,320,0.0,0.0,81,0.00,,,0.00,weatherlink.com 1.10,2013-07-07 22:57:00,
2013-07-07 19:11:00,82.1,77.0,29.91,NW,320,0.0,0.0,83,0.00,,,0.00,weatherlink.com 1.10,2013-07-07 23:11:00,
2013-07-07 19:27:00,81.4,76.0,29.90,NW,320,0.0,0.0,84,0.00,,,0.00,weatherlink.com 1.10,2013-07-07 23:27:00,
2013-07-07 19:43:00,81.0,76.0,29.90,NW,320,0.0,0.0,85,0.00,,,0.00,weatherlink.com 1.10,2013-07-07 23:43:00,
2013-07-07 19:57:00,80.5,76.0,29.91,NW,320,0.0,0.0,85,0.00,,,0.00,weatherlink.com 1.10,2013-07-07 23:57:00,
2013-07-07 20:11:00,79.9,76.0,29.91,NW,320,0.0,0.0,87,0.00,,,0.00,weatherlink.com 1.10,2013-07-08 00:11:00,
2013-07-07 20:27:00,79.3,76.0,29.91,NNW,328,0.0,0.0,88,0.00,,,0.00,weatherlink.com 1.10,2013-07-08 00:27:00,
2013-07-07 20:43:00,78.8,75.0,29.92,NNW,328,0.0,0.0,89,0.00,,,0.00,weatherlink.com 1.10,2013-07-08 00:43:00,
2013-07-07 20:57:00,78.3,75.0,29.93,NNW,328,0.0,0.0,90,0.00,,,0.00,weatherlink.com 1.10,2013-07-08 00:57:00,
2013-07-07 21:13:00,77.7,75.0,29.93,NNW,328,0.0,0.0,91,0.00,,,0.00,weatherlink.com 1.10,2013-07-08 01:13:00,
2013-07-07 21:27:00,77.4,75.0,29.94,NNW,328,0.0,0.0,91,0.00,,,0.00,weatherlink.com 1.10,2013-07-08 01:27:00,
2013-07-07 21:43:00,77.1,75.0,29.94,NNW,328,0.0,0.0,92,0.00,,,0.00,weatherlink.com 1.10,2013-07-08 01:43:00,
2013-07-07 21:58:00,76.7,75.0,29.94,NNW,328,0.0,0.0,93,0.00,,,0.00,weatherlink.com 1.10,2013-07-08 01:58:00,
2013-07-07 22:13:00,76.1,74.0,29.92,NNW,328,0.0,0.0,94,0.00,,,0.00,weatherlink.com 1.10,2013-07-08 02:13:00,
2013-07-07 22:27:00,75.6,74.0,29.89,NNW,328,0.0,0.0,95,0.00,,,0.00,weatherlink.com 1.10,2013-07-08 02:27:00,
2013-07-07 22:43:00,75.6,74.0,29.89,NNW,328,0.0,0.0,95,0.00,,,0.00,weatherlink.com 1.10,2013-07-08 02:43:00,
2013-07-07 22:58:00,75.7,74.0,29.92,South,187,0.0,0.0,95,0.00,,,0.00,weatherlink.com 1.10,2013-07-08 02:58:00,
2013-07-07 23:14:00,75.6,74.0,29.91,South,187,0.0,0.0,95,0.00,,,0.00,weatherlink.com 1.10,2013-07-08 03:14:00,
2013-07-07 23:28:00,75.7,74.0,29.92,South,187,0.0,0.0,93,0.00,,,0.00,weatherlink.com 1.10,2013-07-08 03:28:00,
2013-07-07 23:44:00,75.9,74.0,29.93,South,187,0.0,0.0,92,0.00,,,0.00,weatherlink.com 1.10,2013-07-08 03:44:00,
2013-07-07 23:58:00,76.1,74.0,29.93,ENE,58,0.0,1.0,92,0.00,,,0.00,weatherlink.com 1.10,2013-07-08 03:58:00,